Weather History for Melbourne Airport, Victoria

Change the Weather History Date:

Sunday, November 3, 2013

  Actual Average Record
Temperature  
Mean Temperature 53 °F -  
Max Temperature 59 °F 68 °F - ()
Min Temperature 46 °F 48 °F - ()
Degree Days  
Heating Degree Days 12    
Growing Degree Days 3 (Base 50)    
Moisture  
Dew Point 45 °F    
Average Humidity 68    
Maximum Humidity 94    
Minimum Humidity 37    
Precipitation  
Precipitation 0.08 in 0.08 in - ()
Sea Level Pressure  
Sea Level Pressure 30.09 in    
Wind  
Wind Speed 14 mph ()    
Max Wind Speed 26 mph    
Max Gust Speed 37 mph    
Visibility 6.9 miles    
Events Rain    
T = Trace of Precipitation, MM = Missing Value Source: Averaged Metar Reports

Daily Weather History Graph

Daily Weather History Graph

Search for Another Location

Airport:

Trip Planner

Search our weather history database for the weather conditions in past years. The results will help you decide how hot, cold, wet, or windy it might be!

Date:

Astronomy

Nov. 03, 2013 Rise Set
Actual Time 6:12 AM AEDT 7:56 PM AEDT
Civil Twilight 5:43 AM AEDT 8:25 PM AEDT
Nautical Twilight 5:09 AM AEDT 8:59 PM AEDT
Astronomical Twilight 4:33 AM AEDT 9:35 PM AEDT
Moon 5:47 AM AEDT (11/3) 7:39 PM AEDT (11/3)
Length of Visible Light 14h 41m
Length of Day
13h 44m
Waning Crescent, 0% of the Moon is Illuminated
Nov 3
Waning Crescent
Nov 3
New
Nov 10
First Quarter
Nov 18
Full
Nov 26
Last Quarter

Hourly Weather History & Observations

Time (AEDT) Temp. Windchill Dew Point Humidity Pressure Visibility Wind Dir Wind Speed Gust Speed Precip Events Conditions
12:00 AM 57 °F - 54 °F 86% 29.95 in 11 mi SSW 4.6 mph - -   Haze
12:00 AM 57.2 °F - 53.6 °F 88% 29.95 in 6.2 mi SSW 4.6 mph - N/A   Mostly Cloudy
12:05 AM 57.2 °F - 53.6 °F 88% 29.95 in 6.2 mi South 4.6 mph - N/A   Mostly Cloudy
12:30 AM 57.2 °F - 55.4 °F 94% 29.95 in 6.2 mi SSW 5.8 mph - N/A   Mostly Cloudy
12:55 AM 57.2 °F - 55.4 °F 94% 29.95 in 3.7 mi SSW 9.2 mph - N/A   Light Drizzle
1:00 AM 57 °F - 55 °F 92% 29.95 in - SSW 9.2 mph - -  
1:00 AM 57.2 °F - 55.4 °F 94% 29.95 in 2.5 mi SSW 9.2 mph - N/A   Drizzle
1:30 AM 55.4 °F - 53.6 °F 94% 29.95 in 3.7 mi SSW 15.0 mph - N/A   Drizzle
1:52 AM 55.4 °F - 53.6 °F 94% 29.95 in 5.6 mi SSW 9.2 mph - N/A   Light Drizzle
2:00 AM 55 °F - 53 °F 89% 29.96 in - SW 11.5 mph - -  
2:00 AM 55.4 °F - 53.6 °F 94% 29.95 in 5.6 mi SW 11.5 mph - N/A   Light Drizzle
2:30 AM 55.4 °F - 51.8 °F 88% 29.95 in 6.2 mi SW 12.7 mph - N/A   Mostly Cloudy
3:00 AM 55 °F - 49 °F 76% 29.95 in 11 mi WSW 18.4 mph - - Rain Light Drizzle
3:00 AM 55.4 °F - 50.0 °F 82% 29.95 in 6.2 mi SW 18.4 mph - N/A   Light Drizzle
3:30 AM 55.4 °F - 50.0 °F 82% 29.95 in 6.2 mi WSW 11.5 mph - N/A   Mostly Cloudy
4:00 AM 56 °F - 45 °F 57% 29.96 in - WSW 13.8 mph - -  
4:00 AM 55.4 °F - 44.6 °F 67% 29.95 in 6.2 mi WSW 13.8 mph - N/A   Mostly Cloudy
4:30 AM 55.4 °F - 44.6 °F 67% 29.95 in 6.2 mi West 13.8 mph - N/A   Mostly Cloudy
5:00 AM 55 °F - 45 °F 59% 29.96 in - WSW 15.0 mph - -  
5:00 AM 55.4 °F - 44.6 °F 67% 29.95 in 6.2 mi WSW 15.0 mph - N/A   Mostly Cloudy
5:30 AM 53.6 °F - 48.2 °F 82% 29.95 in 6.2 mi WSW 15.0 mph - N/A   Light Drizzle
6:00 AM 53 °F - 50 °F 87% 29.98 in 19 mi WSW 9.2 mph - -   Overcast
6:00 AM 51.8 °F - 50.0 °F 94% 29.98 in 6.2 mi WSW 9.2 mph - N/A   Light Drizzle
6:25 AM 53.6 °F - 46.4 °F 77% 29.98 in 6.2 mi WSW 17.3 mph - N/A   Mostly Cloudy
6:30 AM 53.6 °F - 44.6 °F 72% 29.98 in 6.2 mi WSW 19.6 mph - N/A   Mostly Cloudy
7:00 AM 53 °F - 43 °F 60% 30.01 in - WSW 16.1 mph - -  
7:00 AM 53.6 °F - 42.8 °F 67% 30.01 in 6.2 mi WSW 16.1 mph - N/A   Mostly Cloudy
7:30 AM 55.4 °F - 42.8 °F 63% 30.01 in 6.2 mi WSW 12.7 mph - N/A   Mostly Cloudy
8:00 AM 55 °F - 44 °F 58% 30.03 in - SW 19.6 mph - -  
8:00 AM 55.4 °F - 44.6 °F 67% 30.04 in 6.2 mi SW 19.6 mph - N/A   Scattered Clouds
8:08 AM 55.4 °F - 44.6 °F 67% 30.04 in 6.2 mi SW 18.4 mph 29.9 mph N/A   Scattered Clouds
8:30 AM 55.4 °F - 42.8 °F 63% 30.04 in 6.2 mi SW 19.6 mph - N/A   Partly Cloudy
8:34 AM 55.4 °F - 42.8 °F 63% 30.04 in - WSW 19.6 mph 31.1 mph N/A   Unknown
9:00 AM 55 °F - 39 °F 44% 30.05 in 19 mi WSW 21.9 mph - -   Mostly Cloudy
9:00 AM 55.4 °F - 39.2 °F 54% 30.04 in 6.2 mi SW 21.9 mph 34.5 mph N/A   Mostly Cloudy
9:30 AM 51.8 °F - 48.2 °F 88% 30.06 in 6.2 mi WSW 26.5 mph - N/A   Mostly Cloudy
10:00 AM 56 °F - 44 °F 54% 30.07 in - WSW 21.9 mph - -  
10:00 AM 55.4 °F - 44.6 °F 67% 30.06 in 6.2 mi WSW 21.9 mph - N/A   Scattered Clouds
10:17 AM 57.2 °F - 41.0 °F 55% 30.06 in 6.2 mi SW 25.3 mph 36.8 mph N/A   Mostly Cloudy
10:30 AM 57.2 °F - 41.0 °F 55% 30.06 in 6.2 mi SW 24.2 mph - N/A   Scattered Clouds
11:00 AM 51 °F - 45 °F 72% 30.09 in - SSW 21.9 mph - -  
11:00 AM 50.0 °F - 44.6 °F 82% 30.09 in 4.3 mi SSW 21.9 mph - N/A Rain Light Rain Showers
11:07 AM 51.8 °F - 46.4 °F 82% 30.09 in 6.2 mi SSW 20.7 mph 32.2 mph N/A   Scattered Clouds
11:30 AM 59.0 °F - 44.6 °F 59% 30.09 in 6.2 mi SSW 21.9 mph - N/A   Scattered Clouds
11:39 AM 55.4 °F - 41.0 °F 58% 30.09 in 6.2 mi SSW 24.2 mph 36.8 mph N/A Rain Light Rain Showers
12:00 PM 52 °F - 45 °F 69% 30.12 in 12 mi SW 25.3 mph - - Rain Light Rain Showers
12:00 PM 51.8 °F - 44.6 °F 76% 30.12 in 6.2 mi SW 25.3 mph - N/A   Mostly Cloudy
12:07 PM 53.6 °F - 42.8 °F 67% 30.09 in 6.2 mi WSW 19.6 mph 31.1 mph N/A   Scattered Clouds
12:33 PM 55.4 °F - 46.4 °F 72% 30.12 in 6.2 mi South 20.7 mph 32.2 mph N/A   Scattered Clouds
1:00 PM 56 °F - 45 °F 56% 30.12 in - South 19.6 mph - -  
1:00 PM 55.4 °F - 44.6 °F 67% 30.12 in 6.2 mi South 19.6 mph - N/A Rain Light Rain Showers
1:08 PM 53.6 °F - 44.6 °F 72% 30.12 in 3.1 mi SSW 17.3 mph 32.2 mph N/A Rain Light Rain Showers
1:30 PM 53.6 °F - 46.4 °F 77% 30.12 in 5.0 mi SSW 16.1 mph - N/A Rain Light Rain Showers
1:32 PM 51.8 °F - 46.4 °F 82% 30.12 in 6.2 mi SSW 17.3 mph 29.9 mph N/A Rain Light Rain Showers
2:00 PM 58 °F - 47 °F 59% 30.14 in - SSW 17.3 mph - -  
2:00 PM 59.0 °F - 48.2 °F 67% 30.12 in 6.2 mi SSW 17.3 mph - N/A   Scattered Clouds
2:30 PM 57.2 °F - 42.8 °F 59% 30.12 in 6.2 mi South 19.6 mph - N/A   Mostly Cloudy
2:39 PM 57.2 °F - 41.0 °F 55% 30.12 in 6.2 mi South 17.3 mph 31.1 mph N/A Rain Light Rain Showers
3:00 PM 54 °F - 47 °F 72% 30.16 in 12 mi SSW 21.9 mph - - Rain Light Rain Showers
3:00 PM 53.6 °F - 48.2 °F 82% 30.15 in 6.2 mi SSW 21.9 mph - N/A Rain Light Rain Showers
3:07 PM 55.4 °F - 46.4 °F 72% 30.15 in 6.2 mi SSW 18.4 mph 29.9 mph N/A   Mostly Cloudy
3:30 PM 57.2 °F - 39.2 °F 51% 30.15 in 6.2 mi SSW 21.9 mph - N/A   Scattered Clouds
4:00 PM 56 °F - 41 °F 47% 30.16 in - South 20.7 mph - -  
4:00 PM 55.4 °F - 41.0 °F 58% 30.15 in 6.2 mi South 20.7 mph 32.2 mph N/A Rain Light Rain Showers
4:30 PM 57.2 °F - 39.2 °F 51% 30.15 in 6.2 mi South 20.7 mph 32.2 mph N/A   Mostly Cloudy
5:00 PM 58 °F - 39 °F 37% 30.16 in - South 21.9 mph - -  
5:00 PM 59.0 °F - 39.2 °F 48% 30.15 in 6.2 mi South 21.9 mph - N/A   Partly Cloudy
5:30 PM 57.2 °F - 41.0 °F 55% 30.18 in 6.2 mi South 24.2 mph - N/A Rain Light Rain Showers
6:00 PM 56 °F - 39 °F 41% 30.19 in 16 mi South 19.6 mph - -   Scattered Clouds
6:00 PM 55.4 °F - 39.2 °F 54% 30.18 in 6.2 mi South 19.6 mph - N/A   Partly Cloudy
6:30 PM 55.4 °F - 37.4 °F 51% 30.21 in 6.2 mi South 20.7 mph - N/A   Scattered Clouds
7:00 PM 54 °F - 39 °F 45% 30.22 in - South 17.3 mph - -  
7:00 PM 55.4 °F - 39.2 °F 54% 30.21 in 6.2 mi South 17.3 mph - N/A   Mostly Cloudy
7:36 PM 53.6 °F - 39.2 °F 58% 30.24 in 6.2 mi SSW 18.4 mph 29.9 mph N/A Rain Light Rain Showers
8:00 PM 52 °F - 39 °F 49% 30.25 in - SSW 17.3 mph - -  
8:00 PM 51.8 °F - 39.2 °F 62% 30.24 in 6.2 mi SSW 17.3 mph - N/A   Mostly Cloudy
8:30 PM 51.8 °F - 39.2 °F 62% 30.24 in 6.2 mi SSW 15.0 mph - N/A   Scattered Clouds
9:00 PM 51 °F - 39 °F 52% 30.28 in 16 mi SSW 18.4 mph - - Rain Light Drizzle
9:00 PM 51.8 °F - 39.2 °F 62% 30.27 in 6.2 mi SSW 18.4 mph - N/A   Light Drizzle
9:30 PM 50.0 °F - 41.0 °F 71% 30.27 in 6.2 mi SSW 15.0 mph - N/A   Mostly Cloudy
10:00 PM 50 °F - 39 °F 56% 30.30 in - SSW 15.0 mph - -  
10:00 PM 50.0 °F - 39.2 °F 66% 30.30 in 6.2 mi SSW 15.0 mph - N/A   Scattered Clouds
10:26 PM 48.2 °F - 41.0 °F 76% 30.30 in 6.2 mi SSW 18.4 mph 29.9 mph N/A Rain Light Rain Showers
10:30 PM 48.2 °F - 42.8 °F 82% 30.30 in 6.2 mi SSW 19.6 mph - N/A Rain Light Rain Showers
11:00 PM 47 °F - 40 °F 69% 30.32 in - SW 13.8 mph - -  
11:00 PM 48.2 °F - 41.0 °F 76% 30.30 in 6.2 mi SW 13.8 mph - N/A   Mostly Cloudy
11:30 PM 46.4 °F 41.5 °F 39.2 °F 76% 30.30 in 6.2 mi SW 10.4 mph - N/A   Unknown